Precipitable_Water
0.67 0.66 0.63 0.64 0.64 0.64 0.64 0.61 0.60 0.60 0.58 0.56 0.56 0.56 0.53 0.47 0.46 0.37 0.32 0.40 0.41 0.45 0.43 0.36 0.36 0.34 0.31 0.24 0.24 0.24 0.17 0.14 0.14 0.14 0.15 0.18 0.16 0.19 0.22 0.26 0.25 0.35 0.40 0.47 0.67
0.67 0.68 0.67 0.68 0.68 0.67 0.62 0.59 0.59 0.56 0.55 0.54 0.55 0.53 0.50 0.50 0.39 0.36 0.45 0.46 0.47 0.49 0.35 0.30 0.27 0.29 0.24 0.24 0.23 0.19 0.15 0.14 0.17 0.15 0.14 0.16 0.15 0.16 0.17 0.20 0.23 0.29 0.41 0.53 0.64
0.72 0.71 0.71 0.71 0.67 0.60 0.57 0.57 0.58 0.55 0.54 0.56 0.55 0.51 0.52 0.51 0.30 0.34 0.47 0.47 0.47 0.50 0.42 0.34 0.30 0.27 0.23 0.23 0.21 0.20 0.14 0.18 0.16 0.16 0.17 0.17 0.17 0.18 0.16 0.16 0.21 0.20 0.34 0.50 0.60
0.73 0.74 0.71 0.66 0.60 0.57 0.56 0.57 0.56 0.54 0.56 0.55 0.53 0.55 0.52 0.41 0.19 0.39 0.46 0.44 0.45 0.44 0.37 0.32 0.28 0.24 0.21 0.18 0.15 0.12 0.18 0.19 0.19 0.17 0.16 0.16 0.19 0.17 0.20 0.16 0.25 0.31 0.42 0.51 0.57
0.73 0.70 0.64 0.59 0.56 0.55 0.57 0.57 0.55 0.57 0.56 0.54 0.55 0.55 0.43 0.29 0.31 0.45 0.44 0.43 0.40 0.38 0.31 0.26 0.22 0.23 0.17 0.17 0.19 0.19 0.23 0.28 0.30 0.28 0.26 0.25 0.23 0.23 0.24 0.25 0.26 0.34 0.48 0.50 0.56
0.68 0.62 0.57 0.56 0.55 0.57 0.59 0.57 0.57 0.55 0.54 0.57 0.57 0.56 0.34 0.21 0.42 0.45 0.42 0.40 0.36 0.37 0.32 0.28 0.26 0.28 0.22 0.21 0.22 0.26 0.27 0.28 0.31 0.31 0.29 0.25 0.25 0.26 0.26 0.29 0.27 0.33 0.39 0.49 0.52
0.60 0.57 0.55 0.56 0.57 0.59 0.56 0.56 0.54 0.54 0.58 0.57 0.55 0.48 0.30 0.28 0.42 0.42 0.39 0.37 0.35 0.36 0.31 0.35 0.36 0.29 0.30 0.27 0.33 0.30 0.22 0.24 0.27 0.29 0.29 0.29 0.23 0.23 0.28 0.30 0.28 0.28 0.38 0.43 0.47
0.62 0.59 0.57 0.57 0.58 0.57 0.55 0.54 0.53 0.57 0.57 0.55 0.56 0.45 0.25 0.41 0.42 0.36 0.33 0.29 0.34 0.40 0.38 0.41 0.42 0.34 0.31 0.33 0.28 0.23 0.21 0.17 0.26 0.29 0.29 0.27 0.19 0.26 0.29 0.30 0.31 0.30 0.34 0.42 0.47
0.61 0.59 0.58 0.58 0.57 0.56 0.54 0.54 0.56 0.56 0.58 0.55 0.43 0.33 0.23 0.39 0.29 0.30 0.28 0.24 0.34 0.37 0.41 0.43 0.39 0.29 0.26 0.19 0.17 0.18 0.13 0.16 0.21 0.29 0.30 0.28 0.22 0.27 0.30 0.30 0.31 0.30 0.30 0.41 0.46
0.60 0.59 0.58 0.57 0.55 0.55 0.55 0.56 0.56 0.56 0.51 0.48 0.42 0.26 0.29 0.22 0.28 0.28 0.26 0.32 0.32 0.33 0.31 0.32 0.31 0.22 0.22 0.20 0.11 0.14 0.15 0.17 0.15 0.23 0.27 0.25 0.23 0.28 0.30 0.33 0.32 0.29 0.31 0.35 0.40
0.60 0.59 0.57 0.57 0.63 0.64 0.58 0.51 0.35 0.30 0.33 0.27 0.27 0.24 0.24 0.29 0.32 0.23 0.24 0.29 0.29 0.26 0.20 0.26 0.22 0.19 0.22 0.21 0.21 0.21 0.19 0.18 0.19 0.25 0.24 0.24 0.26 0.25 0.27 0.30 0.31 0.31 0.32 0.34 0.38
0.57 0.56 0.55 0.62 0.62 0.63 0.56 0.38 0.44 0.46 0.21 0.31 0.26 0.23 0.27 0.30 0.20 0.23 0.26 0.21 0.22 0.17 0.20 0.20 0.18 0.24 0.26 0.24 0.22 0.21 0.19 0.18 0.22 0.28 0.28 0.27 0.25 0.26 0.29 0.30 0.31 0.32 0.35 0.36 0.39
0.54 0.53 0.52 0.57 0.60 0.55 0.48 0.47 0.67 0.57 0.20 0.23 0.27 0.26 0.26 0.30 0.23 0.25 0.27 0.26 0.21 0.18 0.19 0.18 0.21 0.26 0.24 0.24 0.24 0.23 0.20 0.21 0.21 0.27 0.31 0.28 0.24 0.26 0.29 0.33 0.35 0.37 0.38 0.40 0.40
0.53 0.52 0.52 0.54 0.47 0.50 0.43 0.59 0.64 0.56 0.16 0.18 0.21 0.27 0.29 0.28 0.23 0.38 0.40 0.30 0.25 0.20 0.23 0.24 0.26 0.26 0.26 0.25 0.27 0.20 0.27 0.27 0.25 0.23 0.19 0.29 0.17 0.26 0.29 0.31 0.35 0.37 0.38 0.40 0.44
0.54 0.53 0.57 0.56 0.49 0.43 0.52 0.62 0.64 0.56 0.06 0.24 0.24 0.37 0.33 0.24 0.27 0.32 0.44 0.35 0.28 0.26 0.26 0.23 0.27 0.29 0.27 0.28 0.31 0.24 0.31 0.27 0.27 0.25 0.26 0.25 0.21 0.26 0.32 0.29 0.33 0.38 0.40 0.43 0.47
0.55 0.52 0.55 0.53 0.50 0.58 0.61 0.58 0.53 0.22 0.09 0.22 0.28 0.28 0.27 0.30 0.32 0.38 0.37 0.42 0.40 0.34 0.35 0.32 0.37 0.36 0.36 0.36 0.36 0.34 0.28 0.28 0.30 0.27 0.18 0.26 0.24 0.24 0.28 0.33 0.36 0.40 0.43 0.48 0.51
0.58 0.55 0.52 0.61 0.38 0.63 0.59 0.43 0.21 0.11 0.30 0.22 0.23 0.28 0.27 0.28 0.31 0.34 0.32 0.29 0.26 0.21 0.22 0.31 0.33 0.40 0.42 0.33 0.37 0.33 0.24 0.16 0.16 0.17 0.16 0.28 0.23 0.26 0.36 0.39 0.40 0.44 0.49 0.53 0.56
0.61 0.59 0.60 0.61 0.63 0.59 0.46 0.40 0.13 0.23 0.23 0.31 0.28 0.30 0.26 0.30 0.33 0.35 0.32 0.29 0.36 0.33 0.29 0.24 0.22 0.36 0.43 0.35 0.32 0.33 0.29 0.19 0.12 0.14 0.17 0.28 0.21 0.29 0.44 0.49 0.51 0.52 0.55 0.58 0.60
0.69 0.54 0.50 0.62 0.65 0.57 0.44 0.24 0.22 0.27 0.32 0.30 0.30 0.27 0.27 0.32 0.32 0.33 0.33 0.33 0.37 0.39 0.27 0.27 0.26 0.43 0.43 0.43 0.41 0.34 0.29 0.38 0.27 0.28 0.21 0.23 0.29 0.41 0.46 0.47 0.48 0.50 0.54 0.55 0.58
0.61 0.48 0.48 0.71 0.74 0.62 0.38 0.27 0.30 0.37 0.39 0.36 0.26 0.31 0.26 0.32 0.32 0.34 0.34 0.41 0.37 0.44 0.45 0.36 0.26 0.37 0.41 0.46 0.45 0.39 0.42 0.27 0.29 0.17 0.15 0.21 0.22 0.24 0.36 0.40 0.45 0.48 0.50 0.54 0.58
0.65 0.37 0.62 0.82 0.74 0.50 0.29 0.29 0.35 0.43 0.43 0.36 0.34 0.33 0.35 0.34 0.36 0.34 0.35 0.41 0.45 0.43 0.44 0.38 0.31 0.26 0.35 0.34 0.33 0.35 0.33 0.35 0.34 0.31 0.21 0.20 0.23 0.38 0.38 0.41 0.43 0.47 0.51 0.54 0.58
0.54 0.32 0.72 0.79 0.41 0.41 0.32 0.35 0.43 0.42 0.46 0.42 0.42 0.39 0.37 0.38 0.36 0.35 0.35 0.40 0.50 0.48 0.36 0.40 0.32 0.21 0.23 0.38 0.44 0.42 0.36 0.34 0.23 0.23 0.30 0.28 0.24 0.40 0.43 0.46 0.46 0.47 0.51 0.56 0.60
0.48 0.49 0.70 0.67 0.32 0.34 0.41 0.40 0.43 0.40 0.41 0.39 0.39 0.44 0.45 0.38 0.33 0.39 0.42 0.51 0.51 0.46 0.39 0.38 0.27 0.17 0.18 0.31 0.38 0.33 0.36 0.36 0.36 0.36 0.28 0.25 0.25 0.41 0.43 0.43 0.47 0.48 0.54 0.58 0.59
0.52 0.39 0.52 0.56 0.52 0.41 0.37 0.36 0.37 0.48 0.44 0.45 0.43 0.44 0.40 0.36 0.39 0.34 0.35 0.44 0.48 0.45 0.46 0.42 0.30 0.24 0.18 0.20 0.26 0.25 0.30 0.35 0.35 0.30 0.30 0.29 0.30 0.34 0.39 0.41 0.44 0.48 0.55 0.57 0.56
0.51 0.47 0.54 0.39 0.43 0.43 0.41 0.37 0.35 0.33 0.43 0.45 0.39 0.38 0.34 0.29 0.30 0.31 0.37 0.40 0.45 0.48 0.46 0.42 0.28 0.29 0.29 0.28 0.28 0.28 0.29 0.33 0.34 0.36 0.31 0.30 0.32 0.36 0.40 0.42 0.47 0.52 0.53 0.53 0.53
0.46 0.48 0.55 0.47 0.48 0.42 0.41 0.37 0.36 0.37 0.37 0.35 0.34 0.37 0.38 0.30 0.31 0.28 0.33 0.33 0.32 0.41 0.39 0.43 0.29 0.33 0.26 0.33 0.34 0.30 0.33 0.36 0.36 0.36 0.35 0.36 0.33 0.42 0.46 0.53 0.51 0.50 0.52 0.52 0.54
0.62 0.63 0.52 0.47 0.43 0.38 0.37 0.37 0.36 0.39 0.41 0.41 0.38 0.35 0.33 0.36 0.42 0.44 0.45 0.46 0.44 0.40 0.39 0.38 0.35 0.31 0.24 0.32 0.32 0.23 0.31 0.34 0.36 0.37 0.35 0.29 0.34 0.44 0.48 0.49 0.49 0.49 0.52 0.53 0.56
Wind_Speed
14 13 14 14 13 12 12 11 11 10 10 8 6 4 3 4 5 6 4 2 2 2 4 4 5 5 6 5 4 3 3 3 3 2 1 2 3 4 5 5 4 4 5 4 7
11 11 12 12 13 13 12 13 12 12 11 10 7 5 6 7 9 8 6 5 4 4 5 6 7 6 6 5 4 5 6 5 4 5 5 5 5 5 6 5 5 5 5 5 6
10 11 12 12 13 14 14 14 14 14 13 11 9 9 9 11 11 9 8 7 8 7 8 9 9 8 8 7 5 7 9 7 6 6 5 4 4 4 6 3 3 4 4 5 4
10 11 12 13 14 15 16 17 17 17 15 13 11 11 12 12 11 10 9 10 10 10 11 10 10 8 9 8 9 11 10 8 7 6 6 4 3 3 2 1 2 1 3 3 1
10 13 13 15 16 18 20 20 20 18 15 13 12 11 13 13 11 10 10 11 11 11 11 9 10 8 9 10 10 9 8 6 5 5 4 3 2 2 2 2 2 1 0 2 2
13 13 16 18 20 22 21 21 20 18 15 13 12 13 13 13 10 10 10 9 9 8 10 9 8 7 9 7 7 5 4 3 3 2 1 1 1 2 3 3 3 2 3 4 3
15 17 19 21 22 22 22 21 19 16 14 12 11 12 13 11 9 9 8 7 7 7 7 6 6 7 6 6 4 5 4 3 3 2 1 2 3 3 4 5 5 5 6 5 5
18 20 21 22 22 22 21 20 17 15 13 11 11 11 10 8 7 7 6 5 5 6 5 5 5 6 5 3 4 3 3 3 3 2 2 2 5 7 6 7 10 7 7 7 7
20 21 22 22 22 21 20 18 16 14 11 10 10 10 7 6 6 5 5 5 4 4 5 5 4 4 4 3 2 4 1 2 4 2 4 3 7 10 9 10 10 8 8 8 9
21 21 21 21 20 19 18 16 15 12 10 10 8 7 6 4 3 3 3 3 3 2 2 3 2 2 3 4 1 3 3 4 4 6 7 8 9 11 11 9 9 8 8 9 9
20 20 20 19 18 18 18 15 12 10 10 8 6 6 4 2 3 3 1 2 1 2 1 2 3 1 2 2 2 3 4 5 6 5 8 8 9 10 9 6 7 6 6 6 8
19 19 18 17 16 17 14 13 11 10 8 7 5 5 3 3 3 5 2 1 1 0 1 1 0 1 1 3 4 5 6 7 7 7 7 8 9 7 7 6 5 5 5 5 7
18 17 17 15 14 14 13 12 9 8 7 4 3 2 1 2 4 6 3 1 1 1 2 1 2 3 2 4 6 7 5 7 8 10 6 8 6 7 7 6 6 6 7 7 8
17 16 15 14 12 12 10 9 7 6 4 2 1 1 2 2 3 5 4 2 2 1 2 2 4 3 4 5 6 8 7 9 10 7 6 7 7 9 9 8 8 9 10 10 11
16 15 13 12 12 10 10 7 6 4 1 4 3 3 3 1 4 7 5 3 2 4 4 6 5 5 6 8 8 10 12 10 8 6 5 9 6 10 10 11 11 12 12 13 15
15 14 13 11 10 9 8 6 5 3 5 4 4 4 3 4 3 5 5 3 3 3 5 6 7 7 9 9 9 12 9 7 5 5 6 9 7 11 11 13 13 11 13 16 18
14 13 12 10 10 9 8 6 4 4 7 5 4 3 2 4 3 4 5 6 5 6 8 9 8 10 9 10 10 10 7 7 7 7 8 11 10 11 13 12 12 12 17 19 20
12 12 11 10 9 9 7 5 3 7 6 5 3 2 2 3 3 5 4 6 7 6 5 6 8 8 9 8 9 8 5 5 7 8 12 13 10 11 9 11 16 19 21 22 22
11 10 10 9 9 9 7 4 7 7 5 4 2 2 3 4 3 4 5 4 6 7 4 6 7 7 8 8 7 8 7 7 6 10 10 11 12 14 14 17 21 23 22 23 22
10 9 8 8 9 8 6 6 4 5 4 3 3 4 3 5 3 3 3 4 4 7 5 6 6 6 7 6 7 5 6 9 10 9 13 13 13 13 15 21 23 22 22 22 22
10 9 9 8 8 7 7 6 5 3 3 2 2 1 2 2 2 3 3 4 5 6 6 7 5 9 7 7 8 9 9 9 9 10 11 15 14 15 16 20 22 20 22 23 24
10 9 9 9 7 7 6 5 4 3 1 1 1 0 1 2 2 3 3 5 7 8 8 9 7 10 10 8 8 8 9 10 11 14 14 15 19 16 14 20 21 23 25 26 27
10 10 9 10 8 7 7 5 4 3 2 2 2 1 2 2 3 4 5 7 9 9 9 10 10 10 12 9 10 10 13 14 14 15 17 16 18 17 23 27 25 26 27 28 31
10 9 8 8 8 9 7 5 5 2 2 1 2 1 2 3 5 5 6 8 10 10 11 11 10 10 11 15 15 17 16 17 17 18 20 21 28 27 28 27 27 27 28 32 36
9 9 10 9 8 8 7 7 6 5 4 3 3 2 2 3 6 7 8 11 12 13 12 12 13 14 17 20 20 21 22 22 19 20 19 25 23 26 29 27 26 29 33 38 40
10 9 8 8 8 8 6 7 7 5 5 5 4 4 4 5 6 9 10 11 13 14 14 16 16 16 18 17 19 21 22 20 19 19 22 25 28 28 26 25 29 35 39 40 41
11 10 10 9 8 7 9 8 8 6 5 6 6 6 7 8 10 11 13 14 16 17 17 17 15 15 17 17 20 18 14 15 18 19 20 24 28 26 26 30 35 39 41 42 41
Wind_Direction
249 240 229 222 216 212 204 196 191 186 180 173 164 162 158 143 139 129 119 133 159 187 186 181 161 143 131 135 137 164 150 171 171 154 186 87 84 63 64 84 83 92 99 81 126
232 220 212 206 201 193 186 180 175 168 163 155 149 135 135 133 124 114 104 89 87 102 133 138 139 128 115 116 98 120 129 147 139 123 107 95 95 80 72 66 73 79 79 88 116
217 209 200 191 184 177 173 167 160 155 148 141 131 122 124 126 117 103 93 87 89 97 113 130 128 119 104 97 99 112 119 123 109 115 115 98 82 79 90 76 99 102 87 96 104
199 191 180 174 170 167 161 154 149 144 139 132 123 118 119 122 112 103 90 90 91 91 104 108 109 116 102 101 95 111 114 111 104 108 109 103 78 71 86 84 90 70 105 103 103
179 168 169 165 159 154 149 145 142 138 132 125 118 119 122 112 106 95 92 94 94 92 90 106 104 112 111 108 110 108 113 115 108 114 95 94 82 63 311 313 4 52 156 232 270
156 159 155 152 149 146 144 142 139 135 129 122 116 118 121 109 102 91 91 99 94 92 96 93 104 117 112 115 110 105 103 94 76 97 71 53 347 6 331 340 285 278 254 252 258
147 146 145 144 144 144 143 141 139 135 129 121 118 121 117 112 98 87 86 100 98 94 98 98 102 106 120 116 89 94 81 64 19 344 278 300 312 285 297 338 312 273 266 253 254
140 140 141 141 142 143 143 142 139 136 128 122 119 123 117 103 97 87 75 100 95 103 101 105 104 102 85 104 72 80 50 22 1 21 1 328 274 299 298 299 305 278 262 254 258
138 139 140 141 142 143 143 141 139 136 131 124 123 119 114 99 91 81 67 103 104 90 92 101 104 85 57 76 39 10 344 339 315 5 333 333 288 298 303 296 291 279 262 258 264
138 138 138 139 140 143 143 141 139 136 133 127 117 115 101 103 83 59 56 108 113 119 93 74 82 81 38 32 306 302 307 304 302 307 318 306 291 303 300 292 290 289 270 258 265
139 140 139 139 140 143 143 144 139 130 115 120 125 122 115 90 63 31 76 141 123 74 69 3 73 48 352 348 303 298 294 292 289 292 313 299 298 311 317 310 301 293 289 276 275
144 144 143 140 140 142 142 140 141 141 123 115 116 117 104 80 40 12 26 147 93 241 281 349 42 330 43 355 343 323 310 300 298 298 305 307 302 307 325 319 308 302 296 280 285
150 149 148 147 145 143 142 145 147 149 135 127 116 108 127 53 22 349 1 294 -0 338 323 198 281 324 314 336 339 316 295 293 290 312 305 309 298 317 310 317 316 310 294 289 293
159 158 158 159 154 160 160 160 164 168 152 248 260 297 317 276 341 359 351 298 316 291 272 288 302 301 317 313 314 305 297 297 291 301 287 324 289 315 307 301 306 301 294 290 295
167 167 165 171 168 169 176 182 185 196 184 254 276 268 318 310 282 331 327 302 301 294 281 278 290 300 308 298 304 289 308 296 287 276 291 316 313 301 320 311 300 292 288 297 297
174 177 179 180 183 187 195 203 213 236 248 266 269 280 290 330 325 316 342 308 289 296 310 286 285 293 290 294 305 305 309 310 301 288 302 301 306 303 307 306 308 305 303 301 301
178 181 186 190 194 199 204 215 239 223 246 257 264 268 291 311 314 331 344 353 310 296 304 296 289 290 301 304 300 325 320 298 301 305 278 297 304 290 309 312 308 306 310 309 308
176 185 188 195 202 205 213 229 232 238 243 245 248 261 264 295 322 332 320 331 337 328 304 310 297 305 305 302 295 309 314 288 282 292 292 302 291 289 309 317 321 313 312 311 309
180 187 197 206 208 209 208 226 219 220 231 229 233 256 292 296 283 310 326 319 336 340 329 322 294 302 303 303 300 298 314 295 301 300 304 294 304 292 283 309 315 312 314 312 311
188 192 202 207 204 199 202 213 213 218 223 229 234 267 272 307 299 318 320 318 320 345 330 322 310 306 304 302 322 309 293 308 310 305 300 300 302 294 303 309 313 314 314 314 313
198 201 204 200 194 200 202 212 197 214 218 237 225 251 283 297 321 312 301 309 322 328 342 328 315 304 310 315 301 305 307 314 306 301 293 301 299 294 295 307 312 312 312 312 309
196 199 202 196 198 202 195 202 203 219 201 210 177 235 289 323 332 313 298 310 320 318 320 320 302 302 294 297 300 302 302 308 306 301 297 295 302 306 298 310 313 310 309 309 308
194 196 201 199 200 206 202 196 201 224 256 236 246 281 309 311 321 319 317 312 318 316 312 311 308 309 310 305 305 304 297 303 302 303 290 295 299 308 303 313 310 310 309 309 308
190 195 203 198 200 190 192 209 207 224 222 223 233 272 305 329 332 313 317 315 318 317 319 313 302 288 283 284 290 292 293 292 294 294 293 287 292 301 303 308 308 309 306 307 309
197 204 203 208 212 202 208 214 211 225 233 255 275 281 270 307 317 316 313 315 316 316 315 310 296 289 288 289 292 293 293 291 284 286 288 294 295 299 304 306 306 308 309 309 311
201 199 205 200 208 205 223 221 218 225 234 251 236 262 282 291 296 299 306 309 306 315 312 309 300 299 294 297 298 296 291 285 290 291 288 292 296 304 305 305 309 310 310 310 311
210 207 204 221 215 213 225 221 222 221 256 245 235 268 285 284 295 302 301 306 307 308 306 306 302 304 296 300 304 307 293 292 295 294 296 298 302 306 305 305 309 310 311 312 312